Location: Juzet
(42.9779°N, 0.7597°E)
Time: 08:23:27
(UTC+00:00)

SL-16 R/B - Pass Details

Date: 14 July 2020
Orbit: 985 x 1006 km, 99.5° (Epoch: 04 August)

Event Time Altitude Azimuth Distance (km) Brightness Sun altitude
Exits shadow 00:11:55 - 110° (ESE) 2,835 4.7 -25.4°
Reaches altitude 10° 00:12:08 10° 109° (ESE) 2,772 4.7 -25.4°
Maximum altitude 00:16:51 23° 59° (ENE) 1,986 4.4 -25.3°
Drops below altitude 10° 00:21:35 10° 10° (N) 2,790 5.9 -25.2°
Sets 00:24:34 0° 357° (N) 3,746 6.9 -25.2°
